Location: Ciserano
(45.5833°N, 9.6000°E)
Time: 07:39:57
(UTC+00:00)

Cosmos 1295 Rocket - Pass Details

Date: 26 April 2021
Orbit: 944 x 993 km, 82.9° (Epoch: 13 May)

Event Time Altitude Azimuth Distance (km) Brightness Sun altitude
Rises 21:25:52 0° 4° (N) 3,690 8.4 -25.3°
Reaches altitude 10° 21:29:28 10° 24° (NNE) 2,746 7.3 -25.6°
Maximum altitude 21:33:21 17° 63° (ENE) 2,294 6.4 -26.0°
Enters shadow 21:34:44 16° 78° (ENE) 2,357 6.3 -26.1°
